Notices

What's New in latest Release from April 7th, 2021:

- Updated Glossary, including Speed of Maximum Gust, and Total Hourly Precipitation

- Updated national and regional climate services offices contacts and prices information

- Addition of station inventory lists for 1981-2010, 1971-2000, and 1961-1990 Normals.

If you haven't already, please take our survey and provide feedback about our website: https://eccc.sondage-survey.ca/f/LanguageSelection.aspx?s=442ca660-fcf1-47c0-95a9-59707d6fd709

Hourly Data Report for October 16, 2004

SHERBROOKE A
QUEBEC

45°26'00.000" N
71°41'00.000" W
241.40 m
7028124
71610
YSC

Download Data

Hourly Data (October 2004)
Hourly Data Report for October 16, 2004
TIME
LST
Temp Definition
°C
Dew Point Definition
°C
Rel Hum Definition
%
Precip. Amount Definition
mm

Wind Dir Definition
10's deg

Wind Spd Definition
km/h
Visibility Definition
km
Stn Press Definition
kPa
Hmdx Definition


Wind Chill Definition


Weather Definition


00:00 11.9 11.0 94   8 9 15.0 96.71     Rain
01:00 11.4 10.8 96   6 9 15.0 96.59     Rain
02:00 11.5 10.9 96   7 11 15.0 96.43     Rain
03:00 11.7 11.0 95   7 11 15.0 96.29     Rain
04:00 12.0 11.3 95   7 6 12.9 96.24     Moderate Rain
05:00 11.7 11.2 97     0 9.7 96.15     Rain
06:00 11.4 11.1 98   26 20 3.1 96.22     Moderate Rain
07:00 10.5 9.6 94   28 9 19.3 96.20     Drizzle
08:00 10.5 9.7 95   24 9 24.1 96.32     Cloudy
09:00 10.3 9.6 95   25 13 9.7 96.41     Rain,Drizzle,Fog
10:00 10.0 8.7 92   26 17 24.1 96.48     Cloudy
11:00 10.9 9.4 90   24 6 24.1 96.48     Mainly Clear
12:00 11.5 7.9 79   23 13 24.1 96.50     Mainly Clear
13:00 12.4 7.3 71   24 9 24.1 96.52     Mostly Cloudy
14:00 11.8 7.1 73   24 13 24.1 96.61     Cloudy
15:00 12.1 7.5 73   23 7 24.1 96.65     Mostly Cloudy
16:00 11.4 6.9 74   21 7 24.1 96.74     Cloudy
17:00 10.4 7.7 83   15 6 15.0 96.74      
18:00 10.2 6.6 78   18 7 15.0 96.82      
19:00 9.7 7.3 85   18 9 15.0 96.86     Rain
20:00 9.1 7.6 90   20 7 9.7 96.90     Rain
21:00 6.9 5.5 91   24 11 11.3 97.03     Rain
22:00 6.8 5.9 94   18 7 15.0 97.03     Rain
23:00 5.8 4.8 93     0 15.0 97.01      

Notes on Data Quality.

Legend

  • E = Estimated
  • M = Missing
  • NA = Not Available*
  • [empty] = Indicates an unobserved value
Date modified: